Regional Weather Roundup
Issued by NWS Jackson, KY

Home | Current Version | Previous Version | Text Only | Print | Product List | Glossary Off
Versions: 1 2 3 4 5 6 7 8 9 10 11 12 13 14 15 16 17 18 19 20 21 22 23 24 25 26 27 28 29 30 31 32 33 34 35 36 37 38 39 40 41 42 43 44 45 46 47 48 49 50

512
ASUS43 KJKL 230710
RWRJKL

EAST KENTUCKY HOURLY WEATHER ROUNDUP
NATIONAL WEATHER SERVICE JACKSON KY
300 AM EDT TUE MAY 23 2017

NOTE: "FAIR" INDICATES FEW OR NO CLOUDS BELOW 12,000 FEET WITH
NO SIGNIFICANT WEATHER AND/OR OBSTRUCTIONS TO VISIBILITY.

* THESE REPORTS ARE NOT UNDER NWS QUALITY CONTROL AND MAY NOT
  REPORT WEATHER SUCH AS PRECIPITATION AND FOG.

KYZ079-080-083-085-087-088-110-112-115-119-120-230800
...EASTERN KENTUCKY...

CITY           SKY/WX    TMP DP  RH WIND       PRES   REMARKS
JACKSON        CLOUDY    57  50  77 VRB3      29.94F
LONDON         CLOUDY    59  52  77 N3        29.93F
SOMERSET*      CLOUDY    55  52  88 CALM      29.93F
MONTICELLO*    CLOUDY    59  56  89 N10       29.92F
WILLIAMSBURG*  CLOUDY    55  55 100 CALM      29.92F
MIDDLESBORO*   CLOUDY    58  58  97 CALM      29.93F
HARLAN APT*    CLOUDY    55  54  94 CALM      29.94F
PIKE CO APT*     N/A     55  55 100 N3        29.95F
BIG SANDY APT* CLOUDY    54  54  98 E3        29.95F
MOREHEAD APT*  CLOUDY    55  50  82 CALM      29.97F
$$

KYZ035-036-041-042-044-050-067-078-099-230800
...CENTRAL KENTUCKY...

CITY           SKY/WX    TMP DP  RH WIND       PRES   REMARKS
MT STERLING*   CLOUDY    55  52  88 CALM      29.97F
FLEMING/MASON* CLOUDY    53  52  95 CALM      29.97F
DANVILLE*      CLOUDY    55  52  88 E3        29.94F
LEXINGTON      CLOUDY    60  49  66 E9        29.94F
FRANKFORT      CLOUDY    57  52  83 CALM      29.93F
LOUISVILLE     CLOUDY    59  52  77 N3        29.92F
LEBANON*         N/A     57  52  82 NE5       29.92F
GLASGOW*       CLOUDY    59  54  82 NE5       29.91F
BOWLING GREEN  CLOUDY    62  55  77 NE5       29.91F
$$

KYZ091>093-OHZ055-061-077-WVZ005-015-034-035-042-230800
...SOUTHERN OHIO/WEST VIRGINIA...

CITY           SKY/WX    TMP DP  RH WIND       PRES   REMARKS
COVINGTON      MOCLDY    54  48  80 E3        29.94F
COLUMBUS       CLOUDY    52  49  89 CALM      29.97F
DAYTON         MOCLDY    56  45  66 S5        29.97F
WILMINGTON     MOCLDY    53  47  79 CALM      29.96F
HUNTINGTON     CLOUDY    53  51  93 CALM      29.96F
CHARLESTON     CLOUDY    53  52  96 CALM      29.96F FOG
PINEVILLE*     CLOUDY    54  53  97 MISG      30.01F
BECKLEY        PTCLDY    52  49  89 CALM      29.98F
BLUEFIELD      CLOUDY    53  50  89 CALM      29.99F
LOGAN CO APT*    N/A     55  54  94 CALM      29.96F
$$

VAZ002-007-008-TNZ017-027-036-066-071-230800
...SOUTHWEST VIRGINIA/EAST TENNESSEE...

CITY           SKY/WX    TMP DP  RH WIND       PRES   REMARKS
WISE*          CLOUDY    55  55 100 CALM      29.98F
JONESVILLE*      N/A     59  57  94 CALM      29.94F
ABINGDON*      CLOUDY    63  58  83 CALM      29.95F
BRISTOL        CLOUDY    63  58  83 CALM      29.93F
MORRISTOWN*    CLOUDY    64  63  94 CALM      29.91F
SEVIERVILLE*   CLOUDY    64  63  94 CALM      29.91F
KNOXVILLE      LGT RAIN  64  61  90 SE3       29.89F
LAFOLLETTE*    CLOUDY    59  57  94 CALM      29.93F
OAK RIDGE      LGT RAIN  62  59  90 CALM      29.91F
CROSSVILLE     CLOUDY    60  55  83 CALM      29.92F
NASHVILLE      CLOUDY    65  55  70 NE5       29.89F
$$

...KEY TO REMARKS...
VSB - VISIBILITY IN MILES
WCI - WIND CHILL INDEX
HX  - HEAT INDEX

$$




USA.gov is the U.S. government's official web portal to all federal, state and local government web resources and services.